Location: Cheching
(60.0667°N, 164.2167°W)
Time: 12:01:35
(UTC+00:00)

FENGYUN 1C DEB - Pass Details

Date: 04 October 2021
Orbit: 727 x 819 km, 99.4° (Epoch: 17 October)

Event Time Altitude Azimuth Distance (km) Brightness Sun altitude
Exits shadow 10:48:48 19° 56° (NE) 1,728 ? -34.5°
Maximum altitude 10:49:42 20° 41° (NE) 1,689 ? -34.5°
Drops below altitude 10° 10:53:19 10° 356° (N) 2,307 ? -34.4°
Sets 10:56:10 0° 340° (NNW) 3,254 ? -34.4°
